Time,TemperatureF,DewpointF,PressureIn,WindDirection,WindDirectionDegrees,WindSpeedMPH,WindSpeedGustMPH,Humidity,HourlyPrecipIn,Conditions,Clouds,dailyrainin,SoftwareType,DateUTC
2013-03-24 00:00:00,45.0,45.0,27.69,NE,45,0.0,7.0,100,0.00,,,0.05,Rainwise IP-100,2013-03-24 04:00:00,
2013-03-24 00:01:00,44.0,44.0,27.69,East,90,2.0,7.0,100,0.00,,,0.00,Rainwise IP-100,2013-03-24 04:01:00,
2013-03-24 00:06:00,44.0,44.0,27.69,NNE,22,0.0,7.0,100,0.00,,,0.00,Rainwise IP-100,2013-03-24 04:06:00,
2013-03-24 00:11:00,44.0,44.0,27.70,ESE,112,0.0,7.0,100,0.00,,,0.00,Rainwise IP-100,2013-03-24 04:11:00,
2013-03-24 00:16:00,44.0,44.0,27.70,East,90,0.0,5.0,100,0.00,,,0.00,Rainwise IP-100,2013-03-24 04:16:00,
2013-03-24 00:21:00,44.0,44.0,27.70,ENE,67,2.0,7.0,100,0.00,,,0.00,Rainwise IP-100,2013-03-24 04:21:00,
2013-03-24 00:26:00,44.0,44.0,27.70,NE,45,0.0,8.0,100,0.00,,,0.00,Rainwise IP-100,2013-03-24 04:26:00,
2013-03-24 00:31:00,44.0,44.0,27.69,NE,45,1.0,5.0,100,0.00,,,0.00,Rainwise IP-100,2013-03-24 04:31:00,
2013-03-24 00:36:00,44.0,44.0,27.69,NNE,22,0.0,3.0,100,0.00,,,0.00,Rainwise IP-100,2013-03-24 04:36:00,
2013-03-24 00:41:00,44.0,44.0,27.70,East,90,3.0,3.0,100,0.00,,,0.00,Rainwise IP-100,2013-03-24 04:41:00,
2013-03-24 00:46:00,44.0,44.0,27.70,NE,45,2.0,3.0,100,0.00,,,0.00,Rainwise IP-100,2013-03-24 04:46:00,
2013-03-24 00:51:00,44.0,44.0,27.69,NNE,22,2.0,3.0,100,0.00,,,0.00,Rainwise IP-100,2013-03-24 04:51:00,
2013-03-24 00:56:00,44.0,44.0,27.69,NE,45,1.0,5.0,100,0.00,,,0.00,Rainwise IP-100,2013-03-24 04:56:00,
2013-03-24 01:01:00,44.0,44.0,27.70,NE,45,1.0,6.0,100,0.00,,,0.00,Rainwise IP-100,2013-03-24 05:01:00,
2013-03-24 01:06:00,44.0,44.0,27.70,ENE,67,0.0,5.0,100,0.00,,,0.00,Rainwise IP-100,2013-03-24 05:06:00,
2013-03-24 01:11:00,44.0,44.0,27.69,ENE,67,0.0,6.0,100,0.00,,,0.00,Rainwise IP-100,2013-03-24 05:11:00,
2013-03-24 01:16:00,44.0,44.0,27.69,NNE,22,1.0,4.0,100,0.00,,,0.00,Rainwise IP-100,2013-03-24 05:16:00,
2013-03-24 01:21:00,44.0,44.0,27.70,SSW,202,0.0,3.0,100,0.00,,,0.00,Rainwise IP-100,2013-03-24 05:21:00,
2013-03-24 01:26:00,44.0,44.0,27.70,East,90,0.0,1.0,100,0.00,,,0.00,Rainwise IP-100,2013-03-24 05:26:00,
2013-03-24 01:31:00,44.0,44.0,27.72,NE,45,0.0,2.0,100,0.00,,,0.00,Rainwise IP-100,2013-03-24 05:31:00,
2013-03-24 01:36:00,44.0,44.0,27.72,NE,45,0.0,0.0,100,0.00,,,0.00,Rainwise IP-100,2013-03-24 05:36:00,
2013-03-24 01:41:00,44.0,44.0,27.74,NE,45,0.0,0.0,100,0.00,,,0.00,Rainwise IP-100,2013-03-24 05:41:00,
2013-03-24 01:46:00,44.0,44.0,27.74,NE,45,0.0,0.0,100,0.00,,,0.00,Rainwise IP-100,2013-03-24 05:46:00,
2013-03-24 01:51:00,44.0,44.0,27.74,NE,45,0.0,0.0,100,0.00,,,0.00,Rainwise IP-100,2013-03-24 05:51:00,
2013-03-24 01:56:00,44.0,44.0,27.74,South,180,0.0,0.0,100,0.00,,,0.00,Rainwise IP-100,2013-03-24 05:56:00,
2013-03-24 02:01:00,44.0,44.0,27.73,SSW,202,0.0,1.0,100,0.00,,,0.01,Rainwise IP-100,2013-03-24 06:01:00,
2013-03-24 02:06:00,43.0,43.0,27.73,SW,225,0.0,1.0,100,0.06,,,0.01,Rainwise IP-100,2013-03-24 06:06:00,
2013-03-24 02:11:00,43.0,43.0,27.73,SW,225,0.0,0.0,100,0.06,,,0.01,Rainwise IP-100,2013-03-24 06:11:00,
2013-03-24 02:16:00,43.0,43.0,27.73,NNE,22,0.0,0.0,100,0.00,,,0.01,Rainwise IP-100,2013-03-24 06:16:00,
2013-03-24 02:21:00,43.0,43.0,27.70,NNE,22,0.0,0.0,100,0.06,,,0.02,Rainwise IP-100,2013-03-24 06:21:00,
2013-03-24 02:26:00,42.0,42.0,27.70,NNE,22,0.0,1.0,100,0.06,,,0.02,Rainwise IP-100,2013-03-24 06:26:00,
2013-03-24 02:32:00,42.0,42.0,27.69,NNE,22,1.0,3.0,100,0.00,,,0.02,Rainwise IP-100,2013-03-24 06:32:00,
2013-03-24 02:37:00,42.0,42.0,27.69,East,90,0.0,4.0,100,0.06,,,0.03,Rainwise IP-100,2013-03-24 06:37:00,
2013-03-24 02:42:00,42.0,42.0,27.68,SE,135,0.0,2.0,100,0.06,,,0.03,Rainwise IP-100,2013-03-24 06:42:00,
2013-03-24 02:47:00,42.0,42.0,27.68,ESE,112,0.0,2.0,100,0.06,,,0.04,Rainwise IP-100,2013-03-24 06:47:00,
2013-03-24 02:52:00,42.0,42.0,27.68,NNE,22,0.0,1.0,100,0.06,,,0.04,Rainwise IP-100,2013-03-24 06:52:00,
2013-03-24 02:57:00,42.0,42.0,27.68,NNE,22,0.0,0.0,100,0.00,,,0.04,Rainwise IP-100,2013-03-24 06:57:00,
2013-03-24 03:02:00,41.0,41.0,27.66,NNE,22,0.0,0.0,100,0.00,,,0.04,Rainwise IP-100,2013-03-24 07:02:00,
2013-03-24 03:07:00,42.0,40.0,27.66,NNE,22,0.0,0.0,93,0.00,,,0.04,Rainwise IP-100,2013-03-24 07:07:00,
2013-03-24 03:12:00,41.0,39.0,27.66,NNE,22,0.0,0.0,92,0.00,,,0.04,Rainwise IP-100,2013-03-24 07:12:00,
2013-03-24 03:17:00,41.0,39.0,27.66,NNE,22,0.0,0.0,93,0.06,,,0.05,Rainwise IP-100,2013-03-24 07:17:00,
2013-03-24 03:22:00,41.0,40.0,27.66,NNE,22,0.0,0.0,97,0.06,,,0.05,Rainwise IP-100,2013-03-24 07:22:00,
2013-03-24 03:27:00,42.0,40.0,27.64,NNE,22,0.0,0.0,92,0.00,,,0.05,Rainwise IP-100,2013-03-24 07:27:00,
2013-03-24 03:32:00,41.0,38.0,27.64,NNE,22,0.0,0.0,88,0.00,,,0.05,Rainwise IP-100,2013-03-24 07:32:00,
2013-03-24 03:37:00,41.0,37.0,27.64,NNE,22,0.0,0.0,86,0.06,,,0.06,Rainwise IP-100,2013-03-24 07:37:00,
2013-03-24 03:42:00,41.0,37.0,27.64,NNE,22,0.0,0.0,86,0.06,,,0.06,Rainwise IP-100,2013-03-24 07:42:00,
2013-03-24 03:47:00,41.0,37.0,27.65,NNE,22,0.0,0.0,86,0.06,,,0.07,Rainwise IP-100,2013-03-24 07:47:00,
2013-03-24 03:52:00,41.0,37.0,27.65,WNW,292,0.0,0.0,86,0.06,,,0.07,Rainwise IP-100,2013-03-24 07:52:00,
2013-03-24 03:57:00,42.0,38.0,27.64,WNW,292,0.0,0.0,86,0.06,,,0.08,Rainwise IP-100,2013-03-24 07:57:00,
2013-03-24 04:02:00,41.0,37.0,27.64,WNW,292,0.0,3.0,86,0.06,,,0.09,Rainwise IP-100,2013-03-24 08:02:00,
2013-03-24 04:07:00,41.0,37.0,27.64,WNW,292,0.0,0.0,86,0.06,,,0.09,Rainwise IP-100,2013-03-24 08:07:00,
2013-03-24 04:12:00,41.0,37.0,27.64,WNW,292,0.0,2.0,86,0.12,,,0.10,Rainwise IP-100,2013-03-24 08:12:00,
2013-03-24 04:17:00,41.0,37.0,27.64,WNW,292,0.0,0.0,86,0.12,,,0.11,Rainwise IP-100,2013-03-24 08:17:00,
2013-03-24 04:22:00,41.0,38.0,27.64,WNW,292,0.0,0.0,87,0.06,,,0.11,Rainwise IP-100,2013-03-24 08:22:00,
2013-03-24 04:27:00,41.0,37.0,27.63,WNW,292,0.0,0.0,86,0.06,,,0.12,Rainwise IP-100,2013-03-24 08:27:00,
2013-03-24 04:32:00,41.0,38.0,27.63,WNW,292,0.0,0.0,88,0.12,,,0.13,Rainwise IP-100,2013-03-24 08:32:00,
2013-03-24 04:37:00,41.0,37.0,27.62,WNW,292,0.0,0.0,86,0.06,,,0.13,Rainwise IP-100,2013-03-24 08:37:00,
2013-03-24 04:42:00,41.0,37.0,27.62,WNW,292,0.0,0.0,86,0.00,,,0.13,Rainwise IP-100,2013-03-24 08:42:00,
2013-03-24 04:47:00,41.0,37.0,27.62,WNW,292,0.0,0.0,86,0.06,,,0.14,Rainwise IP-100,2013-03-24 08:47:00,
2013-03-24 04:52:00,41.0,37.0,27.62,WNW,292,0.0,0.0,86,0.12,,,0.15,Rainwise IP-100,2013-03-24 08:52:00,
2013-03-24 04:57:00,41.0,37.0,27.61,WNW,292,0.0,0.0,86,0.06,,,0.16,Rainwise IP-100,2013-03-24 08:57:00,
2013-03-24 05:02:00,41.0,38.0,27.61,WNW,292,0.0,0.0,88,0.06,,,0.16,Rainwise IP-100,2013-03-24 09:02:00,
2013-03-24 05:07:00,42.0,38.0,27.60,WNW,292,0.0,0.0,86,0.12,,,0.17,Rainwise IP-100,2013-03-24 09:07:00,
2013-03-24 05:12:00,41.0,38.0,27.60,WNW,292,0.0,0.0,88,0.12,,,0.18,Rainwise IP-100,2013-03-24 09:12:00,
2013-03-24 05:17:00,42.0,39.0,27.60,WNW,292,0.0,1.0,88,0.12,,,0.19,Rainwise IP-100,2013-03-24 09:17:00,
2013-03-24 05:22:00,41.0,38.0,27.60,WSW,247,0.0,2.0,88,0.06,,,0.19,Rainwise IP-100,2013-03-24 09:22:00,
2013-03-24 05:27:00,42.0,38.0,27.56,NE,45,3.0,3.0,85,0.06,,,0.20,Rainwise IP-100,2013-03-24 09:27:00,
2013-03-24 05:32:00,42.0,38.0,27.56,ESE,112,0.0,3.0,84,0.06,,,0.20,Rainwise IP-100,2013-03-24 09:32:00,
2013-03-24 05:37:00,42.0,37.0,27.56,NNE,22,0.0,6.0,82,0.06,,,0.21,Rainwise IP-100,2013-03-24 09:37:00,
2013-03-24 05:42:00,42.0,37.0,27.56,NNE,22,0.0,0.0,82,0.06,,,0.21,Rainwise IP-100,2013-03-24 09:42:00,
2013-03-24 05:47:00,42.0,37.0,27.55,NNE,22,0.0,0.0,81,0.06,,,0.22,Rainwise IP-100,2013-03-24 09:47:00,
2013-03-24 05:52:00,42.0,37.0,27.55,West,270,0.0,0.0,81,0.06,,,0.22,Rainwise IP-100,2013-03-24 09:52:00,
2013-03-24 05:57:00,42.0,37.0,27.55,West,270,0.0,0.0,81,0.06,,,0.23,Rainwise IP-100,2013-03-24 09:57:00,
2013-03-24 06:02:00,42.0,37.0,27.55,West,270,0.0,0.0,81,0.12,,,0.24,Rainwise IP-100,2013-03-24 10:02:00,
2013-03-24 06:07:00,42.0,37.0,27.54,West,270,0.0,0.0,81,0.12,,,0.25,Rainwise IP-100,2013-03-24 10:07:00,
2013-03-24 06:12:00,42.0,37.0,27.54,West,270,0.0,0.0,82,0.06,,,0.25,Rainwise IP-100,2013-03-24 10:12:00,
2013-03-24 06:17:00,42.0,37.0,27.54,West,270,0.0,0.0,81,0.06,,,0.26,Rainwise IP-100,2013-03-24 10:17:00,
2013-03-24 06:22:00,41.0,36.0,27.54,North,360,0.0,0.0,81,0.06,,,0.26,Rainwise IP-100,2013-03-24 10:22:00,
2013-03-24 06:27:00,42.0,37.0,27.52,NNE,22,1.0,2.0,81,0.00,,,0.26,Rainwise IP-100,2013-03-24 10:27:00,
2013-03-24 06:32:00,42.0,38.0,27.52,ENE,67,0.0,6.0,84,0.00,,,0.26,Rainwise IP-100,2013-03-24 10:32:00,
2013-03-24 06:37:00,42.0,40.0,27.50,NE,45,2.0,5.0,92,0.06,,,0.27,Rainwise IP-100,2013-03-24 10:37:00,
2013-03-24 06:42:00,42.0,39.0,27.50,NNE,22,0.0,3.0,90,0.06,,,0.27,Rainwise IP-100,2013-03-24 10:42:00,
2013-03-24 06:47:00,42.0,40.0,27.50,North,360,0.0,2.0,91,0.00,,,0.27,Rainwise IP-100,2013-03-24 10:47:00,
2013-03-24 06:52:00,42.0,40.0,27.50,North,360,0.0,1.0,91,0.00,,,0.27,Rainwise IP-100,2013-03-24 10:52:00,
2013-03-24 06:57:00,42.0,40.0,27.50,North,360,0.0,0.0,92,0.00,,,0.27,Rainwise IP-100,2013-03-24 10:57:00,
2013-03-24 07:02:00,42.0,39.0,27.50,North,360,0.0,0.0,88,0.00,,,0.27,Rainwise IP-100,2013-03-24 11:02:00,
2013-03-24 07:07:00,42.0,38.0,27.52,North,360,0.0,0.0,85,0.06,,,0.28,Rainwise IP-100,2013-03-24 11:07:00,
2013-03-24 07:12:00,41.0,37.0,27.52,North,360,0.0,0.0,85,0.18,,,0.30,Rainwise IP-100,2013-03-24 11:12:00,
2013-03-24 07:17:00,42.0,38.0,27.51,NNE,22,0.0,2.0,86,0.24,,,0.33,Rainwise IP-100,2013-03-24 11:17:00,
2013-03-24 07:23:00,41.0,37.0,27.51,NNE,22,2.0,2.0,86,0.24,,,0.34,Rainwise IP-100,2013-03-24 11:23:00,
2013-03-24 07:28:00,41.0,38.0,27.54,ENE,67,0.0,3.0,89,0.18,,,0.35,Rainwise IP-100,2013-03-24 11:28:00,
2013-03-24 07:33:00,41.0,38.0,27.54,ENE,67,0.0,0.0,88,0.18,,,0.38,Rainwise IP-100,2013-03-24 11:33:00,
2013-03-24 07:38:00,41.0,38.0,27.56,ENE,67,0.0,0.0,89,0.30,,,0.41,Rainwise IP-100,2013-03-24 11:38:00,
2013-03-24 07:43:00,41.0,37.0,27.56,ENE,67,0.0,0.0,84,0.30,,,0.43,Rainwise IP-100,2013-03-24 11:43:00,
2013-03-24 07:48:00,41.0,37.0,27.59,WNW,292,0.0,0.0,83,0.24,,,0.45,Rainwise IP-100,2013-03-24 11:48:00,
2013-03-24 07:53:00,41.0,37.0,27.59,WSW,247,0.0,0.0,83,0.30,,,0.48,Rainwise IP-100,2013-03-24 11:53:00,
2013-03-24 07:58:00,41.0,37.0,27.62,WNW,292,0.0,0.0,83,0.36,,,0.50,Rainwise IP-100,2013-03-24 11:58:00,
2013-03-24 08:03:00,40.0,36.0,27.62,WNW,292,0.0,0.0,83,0.36,,,0.53,Rainwise IP-100,2013-03-24 12:03:00,
2013-03-24 08:08:00,40.0,36.0,27.63,NNE,22,0.0,0.0,85,0.36,,,0.56,Rainwise IP-100,2013-03-24 12:08:00,
2013-03-24 08:13:00,40.0,37.0,27.63,ENE,67,0.0,0.0,86,0.36,,,0.59,Rainwise IP-100,2013-03-24 12:13:00,
2013-03-24 08:18:00,40.0,36.0,27.58,East,90,0.0,2.0,85,0.36,,,0.62,Rainwise IP-100,2013-03-24 12:18:00,
2013-03-24 08:23:00,40.0,36.0,27.58,NE,45,3.0,4.0,83,0.36,,,0.64,Rainwise IP-100,2013-03-24 12:23:00,
2013-03-24 08:28:00,40.0,36.0,27.53,NNE,22,2.0,6.0,83,0.18,,,0.65,Rainwise IP-100,2013-03-24 12:28:00,
2013-03-24 08:33:00,40.0,36.0,27.53,NNE,22,0.0,2.0,83,0.06,,,0.65,Rainwise IP-100,2013-03-24 12:33:00,
2013-03-24 08:38:00,40.0,36.0,27.56,ENE,67,0.0,4.0,83,0.00,,,0.65,Rainwise IP-100,2013-03-24 12:38:00,
2013-03-24 08:43:00,40.0,36.0,27.56,NNE,22,1.0,3.0,83,0.00,,,0.65,Rainwise IP-100,2013-03-24 12:43:00,
2013-03-24 08:48:00,41.0,37.0,27.54,East,90,0.0,1.0,84,0.00,,,0.65,Rainwise IP-100,2013-03-24 12:48:00,
2013-03-24 08:53:00,40.0,36.0,27.54,NNE,22,0.0,2.0,85,0.00,,,0.65,Rainwise IP-100,2013-03-24 12:53:00,
2013-03-24 08:58:00,40.0,38.0,27.54,ENE,67,1.0,5.0,91,0.00,,,0.65,Rainwise IP-100,2013-03-24 12:58:00,
2013-03-24 09:03:00,40.0,38.0,27.54,NNE,22,0.0,4.0,91,0.00,,,0.65,Rainwise IP-100,2013-03-24 13:03:00,
2013-03-24 09:08:00,40.0,39.0,27.53,ESE,112,1.0,3.0,94,0.06,,,0.66,Rainwise IP-100,2013-03-24 13:08:00,
2013-03-24 09:13:00,40.0,38.0,27.53,NNE,22,0.0,3.0,93,0.06,,,0.66,Rainwise IP-100,2013-03-24 13:13:00,
2013-03-24 09:18:00,41.0,39.0,27.54,SE,135,0.0,0.0,93,0.00,,,0.66,Rainwise IP-100,2013-03-24 13:18:00,
2013-03-24 09:23:00,41.0,39.0,27.54,WSW,247,0.0,1.0,93,0.00,,,0.66,Rainwise IP-100,2013-03-24 13:23:00,
2013-03-24 09:28:00,40.0,40.0,27.56,NE,45,0.0,3.0,99,0.00,,,0.66,Rainwise IP-100,2013-03-24 13:28:00,
2013-03-24 09:33:00,40.0,40.0,27.56,NE,45,2.0,4.0,100,0.00,,,0.66,Rainwise IP-100,2013-03-24 13:33:00,
2013-03-24 09:38:00,40.0,40.0,27.54,North,360,2.0,6.0,100,0.00,,,0.66,Rainwise IP-100,2013-03-24 13:38:00,
2013-03-24 09:43:00,40.0,40.0,27.54,NNE,22,0.0,5.0,100,0.00,,,0.66,Rainwise IP-100,2013-03-24 13:43:00,
2013-03-24 09:48:00,39.0,38.0,27.54,East,90,1.0,5.0,97,0.00,,,0.66,Rainwise IP-100,2013-03-24 13:48:00,
2013-03-24 09:53:00,39.0,38.0,27.54,North,360,2.0,6.0,95,0.06,,,0.67,Rainwise IP-100,2013-03-24 13:53:00,
2013-03-24 09:58:00,39.0,37.0,27.55,NE,45,1.0,4.0,93,0.12,,,0.68,Rainwise IP-100,2013-03-24 13:58:00,
2013-03-24 10:03:00,39.0,37.0,27.55,ESE,112,2.0,4.0,92,0.06,,,0.68,Rainwise IP-100,2013-03-24 14:03:00,
2013-03-24 10:08:00,39.0,37.0,27.55,WNW,292,0.0,4.0,91,0.06,,,0.69,Rainwise IP-100,2013-03-24 14:08:00,
2013-03-24 10:13:00,39.0,37.0,27.55,NE,45,0.0,3.0,92,0.12,,,0.70,Rainwise IP-100,2013-03-24 14:13:00,
2013-03-24 10:18:00,39.0,37.0,27.54,NE,45,0.0,2.0,90,0.06,,,0.70,Rainwise IP-100,2013-03-24 14:18:00,
2013-03-24 10:23:00,39.0,37.0,27.54,NE,45,0.0,5.0,92,0.06,,,0.71,Rainwise IP-100,2013-03-24 14:23:00,
2013-03-24 10:28:00,39.0,37.0,27.54,NNE,22,1.0,2.0,92,0.06,,,0.71,Rainwise IP-100,2013-03-24 14:28:00,
2013-03-24 10:33:00,39.0,37.0,27.54,NE,45,0.0,3.0,90,0.00,,,0.71,Rainwise IP-100,2013-03-24 14:33:00,
2013-03-24 10:38:00,39.0,37.0,27.53,NNE,22,1.0,2.0,90,0.06,,,0.72,Rainwise IP-100,2013-03-24 14:38:00,
2013-03-24 10:43:00,39.0,37.0,27.53,ENE,67,0.0,3.0,90,0.06,,,0.72,Rainwise IP-100,2013-03-24 14:43:00,
2013-03-24 10:48:00,40.0,38.0,27.52,ENE,67,0.0,3.0,91,0.00,,,0.72,Rainwise IP-100,2013-03-24 14:48:00,
2013-03-24 10:53:00,39.0,37.0,27.52,NE,45,0.0,2.0,92,0.00,,,0.72,Rainwise IP-100,2013-03-24 14:53:00,
2013-03-24 10:58:00,39.0,37.0,27.52,ENE,67,0.0,1.0,93,0.00,,,0.72,Rainwise IP-100,2013-03-24 14:58:00,
2013-03-24 11:03:00,39.0,38.0,27.52,NNE,22,4.0,4.0,94,0.00,,,0.72,Rainwise IP-100,2013-03-24 15:03:00,
2013-03-24 11:08:00,39.0,38.0,27.51,NNE,22,0.0,4.0,94,0.06,,,0.73,Rainwise IP-100,2013-03-24 15:08:00,
2013-03-24 11:13:00,39.0,39.0,27.51,NNE,22,0.0,3.0,98,0.06,,,0.73,Rainwise IP-100,2013-03-24 15:13:00,
2013-03-24 11:18:00,39.0,39.0,27.51,NNE,22,0.0,5.0,99,0.00,,,0.73,Rainwise IP-100,2013-03-24 15:18:00,
2013-03-24 11:23:00,39.0,39.0,27.51,NNE,22,2.0,3.0,99,0.00,,,0.73,Rainwise IP-100,2013-03-24 15:23:00,
2013-03-24 11:28:00,39.0,39.0,27.51,ENE,67,2.0,4.0,100,0.00,,,0.73,Rainwise IP-100,2013-03-24 15:28:00,
2013-03-24 11:33:00,39.0,39.0,27.51,NE,45,0.0,5.0,100,0.00,,,0.73,Rainwise IP-100,2013-03-24 15:33:00,
2013-03-24 11:38:00,39.0,39.0,27.52,NE,45,0.0,3.0,100,0.00,,,0.73,Rainwise IP-100,2013-03-24 15:38:00,
2013-03-24 11:43:00,40.0,40.0,27.52,NNE,22,2.0,3.0,98,0.00,,,0.73,Rainwise IP-100,2013-03-24 15:43:00,
2013-03-24 11:48:00,39.0,39.0,27.51,North,360,3.0,7.0,100,0.00,,,0.73,Rainwise IP-100,2013-03-24 15:48:00,
2013-03-24 11:53:00,39.0,39.0,27.51,NNE,22,3.0,6.0,100,0.00,,,0.73,Rainwise IP-100,2013-03-24 15:53:00,
2013-03-24 11:58:00,39.0,39.0,27.51,NE,45,0.0,6.0,100,0.00,,,0.73,Rainwise IP-100,2013-03-24 15:58:00,
2013-03-24 12:03:00,39.0,39.0,27.51,NNE,22,0.0,4.0,100,0.00,,,0.73,Rainwise IP-100,2013-03-24 16:03:00,
2013-03-24 12:08:00,40.0,40.0,27.50,NE,45,1.0,5.0,100,0.00,,,0.73,Rainwise IP-100,2013-03-24 16:08:00,
2013-03-24 12:13:00,40.0,40.0,27.50,NNE,22,0.0,4.0,100,0.06,,,0.74,Rainwise IP-100,2013-03-24 16:13:00,
2013-03-24 12:18:00,40.0,40.0,27.50,NE,45,3.0,5.0,100,0.06,,,0.74,Rainwise IP-100,2013-03-24 16:18:00,
2013-03-24 12:23:00,40.0,40.0,27.50,NE,45,1.0,4.0,100,0.00,,,0.74,Rainwise IP-100,2013-03-24 16:23:00,
2013-03-24 12:28:00,41.0,41.0,27.49,NNE,22,3.0,5.0,100,0.00,,,0.74,Rainwise IP-100,2013-03-24 16:28:00,
2013-03-24 12:33:00,40.0,40.0,27.49,North,360,5.0,5.0,100,0.00,,,0.74,Rainwise IP-100,2013-03-24 16:33:00,
2013-03-24 12:38:00,40.0,40.0,27.50,NNE,22,4.0,5.0,100,0.00,,,0.74,Rainwise IP-100,2013-03-24 16:38:00,
2013-03-24 12:43:00,40.0,40.0,27.50,NNE,22,0.0,5.0,100,0.00,,,0.74,Rainwise IP-100,2013-03-24 16:43:00,
2013-03-24 12:48:00,40.0,40.0,27.50,NNE,22,2.0,3.0,100,0.00,,,0.74,Rainwise IP-100,2013-03-24 16:48:00,
2013-03-24 12:53:00,40.0,40.0,27.50,NNE,22,1.0,3.0,100,0.00,,,0.74,Rainwise IP-100,2013-03-24 16:53:00,
2013-03-24 12:58:00,41.0,41.0,27.50,ESE,112,0.0,2.0,100,0.00,,,0.74,Rainwise IP-100,2013-03-24 16:58:00,
2013-03-24 13:03:00,41.0,41.0,27.50,ESE,112,0.0,1.0,100,0.00,,,0.74,Rainwise IP-100,2013-03-24 17:03:00,
2013-03-24 13:08:00,41.0,41.0,27.49,NNE,22,1.0,3.0,100,0.00,,,0.74,Rainwise IP-100,2013-03-24 17:08:00,
2013-03-24 13:13:00,41.0,41.0,27.49,NNE,22,0.0,2.0,100,0.00,,,0.74,Rainwise IP-100,2013-03-24 17:13:00,
2013-03-24 13:18:00,42.0,42.0,27.48,NNE,22,0.0,2.0,100,0.00,,,0.74,Rainwise IP-100,2013-03-24 17:18:00,
2013-03-24 13:23:00,42.0,42.0,27.48,NNE,22,0.0,2.0,100,0.00,,,0.74,Rainwise IP-100,2013-03-24 17:23:00,
2013-03-24 13:28:00,42.0,42.0,27.48,NNE,22,0.0,0.0,100,0.00,,,0.74,Rainwise IP-100,2013-03-24 17:28:00,
2013-03-24 13:33:00,42.0,42.0,27.48,NNE,22,0.0,0.0,100,0.00,,,0.74,Rainwise IP-100,2013-03-24 17:33:00,
2013-03-24 13:38:00,42.0,42.0,27.48,NNE,22,0.0,0.0,100,0.00,,,0.74,Rainwise IP-100,2013-03-24 17:38:00,
2013-03-24 13:44:00,42.0,42.0,27.48,NNE,22,0.0,2.0,100,0.00,,,0.74,Rainwise IP-100,2013-03-24 17:44:00,
2013-03-24 13:49:00,42.0,42.0,27.47,NNW,337,0.0,0.0,100,0.00,,,0.74,Rainwise IP-100,2013-03-24 17:49:00,
2013-03-24 13:54:00,42.0,42.0,27.47,NNW,337,0.0,0.0,100,0.00,,,0.74,Rainwise IP-100,2013-03-24 17:54:00,
2013-03-24 13:59:00,42.0,42.0,27.47,WNW,292,0.0,0.0,100,0.00,,,0.74,Rainwise IP-100,2013-03-24 17:59:00,
2013-03-24 14:04:00,41.0,41.0,27.47,WNW,292,0.0,2.0,100,0.00,,,0.74,Rainwise IP-100,2013-03-24 18:04:00,
2013-03-24 14:09:00,41.0,41.0,27.46,WNW,292,0.0,0.0,100,0.00,,,0.74,Rainwise IP-100,2013-03-24 18:09:00,
2013-03-24 14:14:00,42.0,42.0,27.46,NNE,22,0.0,0.0,100,0.00,,,0.74,Rainwise IP-100,2013-03-24 18:14:00,
2013-03-24 14:19:00,42.0,42.0,27.46,South,180,0.0,0.0,100,0.00,,,0.74,Rainwise IP-100,2013-03-24 18:19:00,
2013-03-24 14:24:00,42.0,42.0,27.46,South,180,0.0,0.0,100,0.00,,,0.74,Rainwise IP-100,2013-03-24 18:24:00,
2013-03-24 14:29:00,42.0,42.0,27.44,SSE,157,0.0,2.0,100,0.00,,,0.74,Rainwise IP-100,2013-03-24 18:29:00,
2013-03-24 14:34:00,42.0,42.0,27.44,SSE,157,0.0,0.0,100,0.00,,,0.74,Rainwise IP-100,2013-03-24 18:34:00,
2013-03-24 14:39:00,42.0,42.0,27.45,SSE,157,0.0,0.0,100,0.00,,,0.74,Rainwise IP-100,2013-03-24 18:39:00,
2013-03-24 14:44:00,42.0,42.0,27.45,ESE,112,0.0,2.0,100,0.00,,,0.74,Rainwise IP-100,2013-03-24 18:44:00,
2013-03-24 14:49:00,42.0,42.0,27.44,SSW,202,0.0,1.0,100,0.00,,,0.74,Rainwise IP-100,2013-03-24 18:49:00,
2013-03-24 14:54:00,42.0,42.0,27.44,SSE,157,0.0,2.0,100,0.00,,,0.74,Rainwise IP-100,2013-03-24 18:54:00,
2013-03-24 14:59:00,42.0,42.0,27.44,SW,225,1.0,3.0,100,0.00,,,0.74,Rainwise IP-100,2013-03-24 18:59:00,
2013-03-24 15:04:00,42.0,42.0,27.44,South,180,0.0,2.0,100,0.00,,,0.74,Rainwise IP-100,2013-03-24 19:04:00,
2013-03-24 15:09:00,43.0,43.0,27.43,South,180,0.0,0.0,100,0.00,,,0.74,Rainwise IP-100,2013-03-24 19:09:00,
2013-03-24 15:14:00,43.0,43.0,27.43,SSW,202,0.0,2.0,100,0.00,,,0.74,Rainwise IP-100,2013-03-24 19:14:00,
2013-03-24 15:19:00,43.0,43.0,27.43,SE,135,0.0,2.0,100,0.00,,,0.74,Rainwise IP-100,2013-03-24 19:19:00,
2013-03-24 15:24:00,43.0,43.0,27.43,ESE,112,1.0,2.0,100,0.00,,,0.74,Rainwise IP-100,2013-03-24 19:24:00,
2013-03-24 15:29:00,44.0,44.0,27.41,South,180,0.0,2.0,100,0.00,,,0.74,Rainwise IP-100,2013-03-24 19:29:00,
2013-03-24 15:34:00,44.0,44.0,27.41,SSE,157,0.0,0.0,100,0.00,,,0.74,Rainwise IP-100,2013-03-24 19:34:00,
2013-03-24 15:39:00,44.0,44.0,27.41,South,180,0.0,2.0,100,0.00,,,0.74,Rainwise IP-100,2013-03-24 19:39:00,
2013-03-24 15:44:00,45.0,45.0,27.41,SSE,157,0.0,2.0,100,0.00,,,0.74,Rainwise IP-100,2013-03-24 19:44:00,
2013-03-24 15:49:00,45.0,45.0,27.39,ENE,67,0.0,2.0,100,0.00,,,0.74,Rainwise IP-100,2013-03-24 19:49:00,
2013-03-24 15:54:00,45.0,45.0,27.39,ESE,112,1.0,4.0,100,0.00,,,0.74,Rainwise IP-100,2013-03-24 19:54:00,
2013-03-24 15:59:00,45.0,45.0,27.39,SE,135,0.0,4.0,100,0.00,,,0.74,Rainwise IP-100,2013-03-24 19:59:00,
2013-03-24 16:04:00,45.0,45.0,27.39,ESE,112,0.0,5.0,100,0.00,,,0.74,Rainwise IP-100,2013-03-24 20:04:00,
2013-03-24 16:09:00,45.0,45.0,27.39,SE,135,0.0,7.0,100,0.00,,,0.74,Rainwise IP-100,2013-03-24 20:09:00,
2013-03-24 16:14:00,44.0,44.0,27.39,ESE,112,0.0,5.0,100,0.00,,,0.74,Rainwise IP-100,2013-03-24 20:14:00,
2013-03-24 16:19:00,44.0,44.0,27.38,ESE,112,0.0,4.0,100,0.00,,,0.74,Rainwise IP-100,2013-03-24 20:19:00,
2013-03-24 16:24:00,44.0,44.0,27.38,NE,45,0.0,3.0,100,0.00,,,0.74,Rainwise IP-100,2013-03-24 20:24:00,
2013-03-24 16:29:00,44.0,44.0,27.39,South,180,2.0,4.0,100,0.00,,,0.74,Rainwise IP-100,2013-03-24 20:29:00,
2013-03-24 16:34:00,44.0,44.0,27.39,South,180,0.0,4.0,100,0.00,,,0.74,Rainwise IP-100,2013-03-24 20:34:00,
2013-03-24 16:39:00,44.0,44.0,27.38,SE,135,0.0,4.0,100,0.00,,,0.74,Rainwise IP-100,2013-03-24 20:39:00,
2013-03-24 16:44:00,44.0,44.0,27.38,SE,135,2.0,3.0,100,0.00,,,0.74,Rainwise IP-100,2013-03-24 20:44:00,
2013-03-24 16:49:00,44.0,44.0,27.38,ESE,112,0.0,3.0,100,0.00,,,0.74,Rainwise IP-100,2013-03-24 20:49:00,
2013-03-24 16:54:00,44.0,44.0,27.38,SE,135,3.0,3.0,100,0.00,,,0.74,Rainwise IP-100,2013-03-24 20:54:00,
2013-03-24 16:59:00,44.0,44.0,27.38,SSW,202,0.0,4.0,100,0.00,,,0.74,Rainwise IP-100,2013-03-24 20:59:00,
2013-03-24 17:04:00,44.0,44.0,27.38,SW,225,0.0,3.0,100,0.00,,,0.74,Rainwise IP-100,2013-03-24 21:04:00,
2013-03-24 17:09:00,43.0,43.0,27.39,South,180,4.0,4.0,100,0.00,,,0.74,Rainwise IP-100,2013-03-24 21:09:00,
2013-03-24 17:14:00,42.0,42.0,27.39,South,180,1.0,9.0,100,0.00,,,0.74,Rainwise IP-100,2013-03-24 21:14:00,
2013-03-24 17:19:00,42.0,42.0,27.40,NE,45,2.0,6.0,100,0.00,,,0.74,Rainwise IP-100,2013-03-24 21:19:00,
2013-03-24 17:24:00,42.0,42.0,27.40,SE,135,0.0,6.0,100,0.00,,,0.74,Rainwise IP-100,2013-03-24 21:24:00,
2013-03-24 17:29:00,42.0,42.0,27.40,SE,135,2.0,6.0,100,0.00,,,0.74,Rainwise IP-100,2013-03-24 21:29:00,
2013-03-24 17:34:00,41.0,41.0,27.40,ENE,67,1.0,6.0,100,0.00,,,0.74,Rainwise IP-100,2013-03-24 21:34:00,
2013-03-24 17:39:00,41.0,41.0,27.40,NE,45,2.0,4.0,100,0.00,,,0.74,Rainwise IP-100,2013-03-24 21:39:00,
2013-03-24 17:44:00,41.0,41.0,27.40,NE,45,0.0,3.0,100,0.00,,,0.74,Rainwise IP-100,2013-03-24 21:44:00,
2013-03-24 17:49:00,41.0,41.0,27.39,NE,45,0.0,3.0,100,0.00,,,0.74,Rainwise IP-100,2013-03-24 21:49:00,
2013-03-24 17:54:00,41.0,41.0,27.39,SSW,202,0.0,2.0,100,0.00,,,0.74,Rainwise IP-100,2013-03-24 21:54:00,
2013-03-24 17:59:00,41.0,41.0,27.40,ESE,112,1.0,3.0,100,0.00,,,0.74,Rainwise IP-100,2013-03-24 21:59:00,
2013-03-24 18:04:00,41.0,41.0,27.40,SSE,157,3.0,4.0,100,0.00,,,0.74,Rainwise IP-100,2013-03-24 22:04:00,
2013-03-24 18:09:00,40.0,40.0,27.39,SSW,202,0.0,3.0,100,0.00,,,0.74,Rainwise IP-100,2013-03-24 22:09:00,
2013-03-24 18:14:00,40.0,40.0,27.39,ESE,112,1.0,3.0,100,0.00,,,0.74,Rainwise IP-100,2013-03-24 22:14:00,
2013-03-24 18:19:00,40.0,40.0,27.39,NNE,22,2.0,2.0,100,0.00,,,0.74,Rainwise IP-100,2013-03-24 22:19:00,
2013-03-24 18:24:00,40.0,40.0,27.39,SSE,157,0.0,3.0,100,0.00,,,0.74,Rainwise IP-100,2013-03-24 22:24:00,
2013-03-24 18:29:00,40.0,40.0,27.39,ESE,112,0.0,4.0,100,0.00,,,0.74,Rainwise IP-100,2013-03-24 22:29:00,
2013-03-24 18:34:00,40.0,40.0,27.39,East,90,0.0,2.0,100,0.00,,,0.74,Rainwise IP-100,2013-03-24 22:34:00,
2013-03-24 18:39:00,40.0,40.0,27.38,ESE,112,1.0,5.0,100,0.00,,,0.74,Rainwise IP-100,2013-03-24 22:39:00,
2013-03-24 18:44:00,39.0,39.0,27.38,SSE,157,0.0,4.0,100,0.00,,,0.74,Rainwise IP-100,2013-03-24 22:44:00,
2013-03-24 18:49:00,39.0,39.0,27.40,South,180,0.0,2.0,100,0.00,,,0.74,Rainwise IP-100,2013-03-24 22:49:00,
2013-03-24 18:54:00,39.0,38.0,27.40,WSW,247,0.0,3.0,97,0.00,,,0.74,Rainwise IP-100,2013-03-24 22:54:00,
2013-03-24 18:59:00,39.0,38.0,27.41,SE,135,0.0,3.0,97,0.00,,,0.74,Rainwise IP-100,2013-03-24 22:59:00,
2013-03-24 19:04:00,39.0,39.0,27.41,ESE,112,0.0,2.0,98,0.00,,,0.74,Rainwise IP-100,2013-03-24 23:04:00,
2013-03-24 19:09:00,39.0,39.0,27.42,South,180,2.0,2.0,98,0.00,,,0.74,Rainwise IP-100,2013-03-24 23:09:00,
2013-03-24 19:14:00,39.0,39.0,27.42,East,90,0.0,3.0,99,0.00,,,0.74,Rainwise IP-100,2013-03-24 23:14:00,
2013-03-24 19:19:00,39.0,38.0,27.40,ESE,112,0.0,1.0,97,0.00,,,0.74,Rainwise IP-100,2013-03-24 23:19:00,
2013-03-24 19:24:00,39.0,38.0,27.40,NE,45,0.0,2.0,96,0.00,,,0.74,Rainwise IP-100,2013-03-24 23:24:00,
2013-03-24 19:29:00,39.0,38.0,27.39,East,90,1.0,3.0,97,0.00,,,0.74,Rainwise IP-100,2013-03-24 23:29:00,
2013-03-24 19:34:00,39.0,38.0,27.39,ESE,112,0.0,3.0,95,0.00,,,0.74,Rainwise IP-100,2013-03-24 23:34:00,
2013-03-24 19:39:00,38.0,37.0,27.39,NE,45,3.0,3.0,95,0.00,,,0.74,Rainwise IP-100,2013-03-24 23:39:00,
2013-03-24 19:45:00,38.0,37.0,27.39,ESE,112,0.0,4.0,95,0.00,,,0.74,Rainwise IP-100,2013-03-24 23:45:00,
2013-03-24 19:50:00,38.0,37.0,27.39,East,90,0.0,4.0,95,0.00,,,0.74,Rainwise IP-100,2013-03-24 23:50:00,
2013-03-24 19:55:00,38.0,37.0,27.39,East,90,0.0,3.0,96,0.00,,,0.74,Rainwise IP-100,2013-03-24 23:55:00,
2013-03-24 20:00:00,38.0,37.0,27.39,ENE,67,0.0,4.0,95,0.00,,,0.74,Rainwise IP-100,2013-03-25 00:00:00,
2013-03-24 20:05:00,38.0,37.0,27.39,ESE,112,1.0,4.0,96,0.00,,,0.74,Rainwise IP-100,2013-03-25 00:05:00,
2013-03-24 20:10:00,38.0,37.0,27.40,East,90,1.0,3.0,97,0.00,,,0.74,Rainwise IP-100,2013-03-25 00:10:00,
2013-03-24 20:15:00,38.0,37.0,27.40,East,90,0.0,2.0,96,0.00,,,0.74,Rainwise IP-100,2013-03-25 00:15:00,
2013-03-24 20:20:00,38.0,38.0,27.41,East,90,0.0,1.0,98,0.00,,,0.74,Rainwise IP-100,2013-03-25 00:20:00,
2013-03-24 20:25:00,38.0,38.0,27.41,East,90,0.0,2.0,98,0.00,,,0.74,Rainwise IP-100,2013-03-25 00:25:00,
2013-03-24 20:30:00,38.0,37.0,27.39,NE,45,0.0,3.0,94,0.06,,,0.75,Rainwise IP-100,2013-03-25 00:30:00,
2013-03-24 20:35:00,38.0,37.0,27.39,South,180,0.0,2.0,96,0.06,,,0.75,Rainwise IP-100,2013-03-25 00:35:00,
2013-03-24 20:40:00,38.0,37.0,27.39,ESE,112,0.0,2.0,97,0.06,,,0.76,Rainwise IP-100,2013-03-25 00:40:00,
2013-03-24 20:45:00,38.0,37.0,27.39,ENE,67,0.0,3.0,94,0.06,,,0.76,Rainwise IP-100,2013-03-25 00:45:00,
2013-03-24 20:50:00,38.0,36.0,27.38,South,180,0.0,3.0,93,0.00,,,0.76,Rainwise IP-100,2013-03-25 00:50:00,
2013-03-24 20:55:00,38.0,36.0,27.38,NW,315,1.0,3.0,91,0.00,,,0.76,Rainwise IP-100,2013-03-25 00:55:00,
2013-03-24 21:00:00,38.0,36.0,27.39,WSW,247,0.0,4.0,90,0.00,,,0.76,Rainwise IP-100,2013-03-25 01:00:00,
2013-03-24 21:05:00,38.0,36.0,27.39,SSW,202,1.0,5.0,92,0.06,,,0.77,Rainwise IP-100,2013-03-25 01:05:00,
2013-03-24 21:10:00,38.0,36.0,27.39,SSE,157,0.0,4.0,92,0.06,,,0.77,Rainwise IP-100,2013-03-25 01:10:00,
2013-03-24 21:15:00,38.0,35.0,27.39,West,270,0.0,0.0,88,0.00,,,0.77,Rainwise IP-100,2013-03-25 01:15:00,
2013-03-24 21:20:00,38.0,36.0,27.41,South,180,0.0,4.0,90,0.00,,,0.77,Rainwise IP-100,2013-03-25 01:20:00,
2013-03-24 21:25:00,38.0,36.0,27.41,SSE,157,1.0,7.0,91,0.00,,,0.77,Rainwise IP-100,2013-03-25 01:25:00,
2013-03-24 21:30:00,38.0,36.0,27.40,SSW,202,1.0,7.0,91,0.00,,,0.77,Rainwise IP-100,2013-03-25 01:30:00,
2013-03-24 21:35:00,38.0,36.0,27.40,East,90,3.0,7.0,91,0.00,,,0.77,Rainwise IP-100,2013-03-25 01:35:00,
2013-03-24 21:40:00,37.0,35.0,27.40,SE,135,2.0,6.0,93,0.00,,,0.77,Rainwise IP-100,2013-03-25 01:40:00,
2013-03-24 21:45:00,37.0,35.0,27.40,South,180,1.0,6.0,92,0.00,,,0.77,Rainwise IP-100,2013-03-25 01:45:00,
2013-03-24 21:50:00,37.0,35.0,27.40,East,90,0.0,6.0,92,0.00,,,0.77,Rainwise IP-100,2013-03-25 01:50:00,
2013-03-24 21:55:00,37.0,35.0,27.40,ENE,67,2.0,5.0,91,0.00,,,0.77,Rainwise IP-100,2013-03-25 01:55:00,
2013-03-24 22:00:00,37.0,35.0,27.41,SSE,157,2.0,3.0,91,0.00,,,0.77,Rainwise IP-100,2013-03-25 02:00:00,
2013-03-24 22:05:00,37.0,35.0,27.41,East,90,0.0,3.0,90,0.00,,,0.77,Rainwise IP-100,2013-03-25 02:05:00,
2013-03-24 22:10:00,37.0,35.0,27.40,SE,135,0.0,4.0,90,0.00,,,0.77,Rainwise IP-100,2013-03-25 02:10:00,
2013-03-24 22:15:00,37.0,35.0,27.40,South,180,0.0,3.0,90,0.00,,,0.77,Rainwise IP-100,2013-03-25 02:15:00,
2013-03-24 22:20:00,37.0,35.0,27.40,South,180,0.0,0.0,90,0.00,,,0.77,Rainwise IP-100,2013-03-25 02:20:00,
2013-03-24 22:25:00,37.0,35.0,27.40,South,180,0.0,0.0,89,0.00,,,0.77,Rainwise IP-100,2013-03-25 02:25:00,
2013-03-24 22:30:00,37.0,35.0,27.40,South,180,0.0,0.0,89,0.00,,,0.77,Rainwise IP-100,2013-03-25 02:30:00,
2013-03-24 22:35:00,37.0,35.0,27.40,South,180,0.0,0.0,89,0.00,,,0.77,Rainwise IP-100,2013-03-25 02:35:00,
2013-03-24 22:40:00,37.0,35.0,27.40,ESE,112,0.0,1.0,90,0.00,,,0.77,Rainwise IP-100,2013-03-25 02:40:00,
2013-03-24 22:45:00,37.0,35.0,27.40,South,180,0.0,4.0,89,0.00,,,0.77,Rainwise IP-100,2013-03-25 02:45:00,
2013-03-24 22:50:00,37.0,35.0,27.40,ESE,112,0.0,4.0,89,0.00,,,0.77,Rainwise IP-100,2013-03-25 02:50:00,
2013-03-24 22:55:00,37.0,35.0,27.40,NNE,22,0.0,2.0,89,0.00,,,0.77,Rainwise IP-100,2013-03-25 02:55:00,
2013-03-24 23:00:00,37.0,35.0,27.40,ENE,67,0.0,2.0,89,0.00,,,0.77,Rainwise IP-100,2013-03-25 03:00:00,
2013-03-24 23:05:00,37.0,35.0,27.40,ENE,67,0.0,2.0,89,0.00,,,0.77,Rainwise IP-100,2013-03-25 03:05:00,
2013-03-24 23:10:00,37.0,33.0,27.40,ENE,67,0.0,2.0,88,0.00,,,0.77,Rainwise IP-100,2013-03-25 03:10:00,
2013-03-24 23:15:00,37.0,35.0,27.40,ESE,112,0.0,1.0,89,0.00,,,0.77,Rainwise IP-100,2013-03-25 03:15:00,
2013-03-24 23:20:00,37.0,35.0,27.41,ESE,112,0.0,0.0,89,0.00,,,0.77,Rainwise IP-100,2013-03-25 03:20:00,
2013-03-24 23:25:00,37.0,33.0,27.41,ESE,112,0.0,1.0,88,0.00,,,0.77,Rainwise IP-100,2013-03-25 03:25:00,
2013-03-24 23:30:00,37.0,35.0,27.41,SSE,157,0.0,3.0,89,0.00,,,0.77,Rainwise IP-100,2013-03-25 03:30:00,
2013-03-24 23:35:00,37.0,35.0,27.41,SSE,157,0.0,3.0,89,0.00,,,0.77,Rainwise IP-100,2013-03-25 03:35:00,
2013-03-24 23:40:00,37.0,35.0,27.40,ENE,67,0.0,0.0,89,0.00,,,0.77,Rainwise IP-100,2013-03-25 03:40:00,
2013-03-24 23:45:00,37.0,33.0,27.40,NE,45,0.0,2.0,88,0.06,,,0.78,Rainwise IP-100,2013-03-25 03:45:00,
2013-03-24 23:50:00,37.0,33.0,27.40,NE,45,0.0,1.0,88,0.06,,,0.78,Rainwise IP-100,2013-03-25 03:50:00,
2013-03-24 23:55:00,37.0,33.0,27.40,NE,45,0.0,3.0,88,0.00,,,0.78,Rainwise IP-100,2013-03-25 03:55:00,